APRIZESAT 7

Last updated on Thu Sep 24 2026 00:03:56 GMT+0000 (Coordinated Universal Time)

1 39416U 13066A 26266.62826677 .00000892 00000+0 93332-4 0 9997 2 39416 97.7815 218.4949 0034251 244.0781 115.6907 14.91762621695907
UTC large
Height (km)
Speed (km/s)
/
Latitude / Longitude
Inclination (degrees)
Orbital Period (minutes)
Azimuth
Elevation
Range (km)
Doppler Factor

Next 0 passes for location: London (51.5072 / 0.1276)

No passes found over London.
APRIZESAT 7